Regional Weather Roundup
Issued by NWS

Home | Current Version | Previous Version | Text Only | Print | Product List | Glossary On
Versions: 1 2 3 4 5 6 7 8 9 10 11 12 13 14 15 16 17 18 19 20 21 22 23 24 25 26 27 28 29 30 31 32 33 34 35 36 37 38 39 40 41 42 43 44 45 46 47 48 49 50
000
ASUS43 KDTX 290510
RWRMI
MICHIGAN HOURLY REGIONAL WEATHER ROUNDUP
NATIONAL WEATHER SERVICE DETROIT/PONTIAC MI
100 AM EDT FRI MAY 29 2015

NOTE: "FAIR" INDICATES FEW OR NO CLOUDS BELOW 12,000 FEET WITH NO
SIGNIFICANT WEATHER AND/OR OBSTRUCTION TO VISIBILITY.

MIZ047>049-052>055-059>063-066>070-074>076-081>083-290600-
SOUTHEAST LOWER MICHIGAN

CITY           SKY/WX    TMP DP  RH WIND       PRES   REMARKS
ADRIAN         PTCLDY    63  56  78 E6        30.18F
ALMA           CLEAR     63  56  80 CALM      30.16S
ANN ARBOR      CLEAR     61  52  72 SE3       30.19F
BAD AXE        CLEAR     62  52  70 S5        30.20S
CARO           CLEAR     59  53  79 CALM      30.18F
DETROIT CITY   CLEAR     63  48  58 SE6       30.20F
DETROIT        PTCLDY    65  49  56 E5        30.20F
FLINT          CLEAR     63  51  65 SE8       30.18F
GROSSE ILE     CLEAR     63  54  72 CALM      30.18F
HILLSDALE      CLEAR     64  54  69 SE8       30.18S
HOWELL         CLEAR     62  51  69 SE8       30.18F

CITY           SKY/WX    TMP DP  RH WIND       PRES   REMARKS
JACKSON        CLEAR     63  53  70 SE7       30.18S
LAMBERTVILLE   CLEAR     64  54  68 E3        30.18F
LANSING        CLEAR     66  52  60 SE8       30.17F
LAPEER         FAIR      62  49  60 SE5       30.20S
MASON          CLEAR     61  51  70 SE7       30.17F
MONROE         PTCLDY    64  54  68 E8        30.17F
MT. CLEMENS    CLEAR     60  54  79 SE2       30.18F
PONTIAC        CLEAR     65  49  56 SE8       30.19F
PORT HOPE        N/A     68  54  60 VRB5      30.17F
PORT HURON     CLEAR     55  52  88 SE3       30.21F
TRI CITIES     CLEAR     65  55  70 SE7       30.17F
MIDLAND        FAIR      68  53  58 SE6       30.15S
TROY           CLEAR     65  48  55 CALM      30.22F
SAGINAW HB     CLEAR     63  54  72 SE5       30.16F
$$
MIZ043>046-050>051-056>058-064>065-071>073-077>080-290600-
SOUTHWEST LOWER MICHIGAN

CITY           SKY/WX    TMP DP  RH WIND       PRES   REMARKS
BATTLE CREEK   CLEAR     68  52  56 SE9       30.15F
BENTON HARBOR  PTCLDY    68  55  63 SE8       30.09F
BIG RAPIDS     CLEAR     60  56  88 CALM      30.14S
COLDWATER      CLEAR     65  51  61 SE8       30.16S
FREMONT        FAIR      65  57  75 SE7       30.12R
HOLLAND        PTCLDY    68  56  65 SE10      30.12S
GRAND RAPIDS   CLEAR     66  56  70 SE9       30.14S
IONIA          FAIR      66  53  64 SE10      30.14F
KALAMAZOO      PTCLDY    67  54  63 SE5       30.13F
LUDINGTON      CLEAR     61  56  85 E3        30.11S
MARSHALL       CLEAR     65  51  61 SE7       30.15F
MOUNT PLEASANT CLEAR     65  56  71 SE3       30.15S
MUSKEGON       PTCLDY    65  56  72 SE6       30.11S
SOUTH HAVEN    PTCLDY    68  55  63 SE6       30.10S
$$
MIZ016>042-290600-
NORTHERN LOWER MICHIGAN

CITY           SKY/WX    TMP DP  RH WIND       PRES   REMARKS
ALPENA         CLEAR     56  52  86 CALM      30.15S
BEAVER ISLAND  PTCLDY    53  52  95 E5        30.10F
BELLAIRE       PTCLDY    59  58  95 CALM      30.12S FOG
CADILLAC       CLEAR     59  55  88 CALM      30.13F
CHARLEVOIX     PTCLDY    61  57  88 SE5       30.14S
FRANKFORT      PTCLDY    59  52  77 CALM      30.10R
GAYLORD        CLEAR     60  60 100 CALM      30.14F
GRAYLING       CLEAR     57  55  94 CALM      30.15S
HARBOR SPRINGS CLEAR     57  56  94 NE5       30.12S
HOUGHTON LAKE  CLEAR     65  58  78 S5        30.16S
MANISTEE       CLEAR     59  54  82 E5        30.11S
OSCODA         CLEAR     66  59  78 S7        30.16S
PELLSTON       PTCLDY    57  54  89 CALM      30.13S
ROGERS CITY    CLEAR     53  50  89 CALM      30.14S
TRAVERSE CITY  CLEAR     57  54  89 CALM      30.11S
$$
MIZ007>008-015-290600-
EASTERN UPPER MICHIGAN

CITY           SKY/WX    TMP DP  RH WIND       PRES   REMARKS
KINROSS        CLEAR     55  52  88 SE8       30.13F
MACKINAC ISLAN PTCLDY    45  44  97 E7        30.12F
NEWBERRY       CLEAR     54  52  93 S7        30.10S
S. S. MARIE    CLEAR     55  49  80 E5        30.13F
MUNISING         N/A     58  51  78 S7        30.05S
$$
MIZ004>006-011>014-085-290600-
CENTRAL UPPER MICHIGAN

CITY           SKY/WX    TMP DP  RH WIND       PRES   REMARKS
MANISTIQUE     PTCLDY    51  49  92 SE3       30.09S
ESCANABA       PTCLDY    55  48  76 CALM      30.06R
MENOMINEE      PTCLDY    64  48  55 SW8       30.06R
SAWYER-GWINN   PTCLDY    58  53  83 S10       30.06R
$$
MIZ001>003-009>011-084-290600-
WESTERN UPPER MICHIGAN

CITY           SKY/WX    TMP DP  RH WIND       PRES   REMARKS
IRON MOUNTAIN  PTCLDY    62  59  90 S5        30.04S
HOUGHTON       PTCLDY    58  54  86 SW8       29.97S
COPPER HARBOR    N/A     56  50  80 SW8       29.96R
IRONWOOD       MOCLDY    70  55  60 S10       29.95F
$$

ABBREVIATIONS USED IN REMARKS
   TC - TEMPERATURE IN CELSIUS
  WCI - WIND CHILL INDEX
   HX - HEAT INDEX
  VSB - VISIBILITY




USA.gov is the U.S. government's official web portal to all federal, state and local government web resources and services.